Other Public Products
Issued by NWS Charleston, SC

Current Version | Previous Version | Graphics & Text | Print | Product List | Glossary On
Versions: 1 2 3 4 5 6 7 8 9 10 11 12 13 14 15 16 17 18 19 20 21 22 23 24 25 26 27 28 29 30 31 32 33 34 35 36 37 38 39 40 41 42 43 44 45 46 47 48 49 50
000
FPUS82 KCHS 191012
OPUCHS

TEST...KCHS/KSAV Gateway Observations...TEST
National Weather Service Charleston SC
500 AM EST SUN NOV 19 2017

NOTE: "fair" indicates few or no clouds below 12,000 feet with no
significant weather and/or obstructions to visibility.

SCZ050-WAZ558-NCZ071-TXZ119-213-PAZ071-DCZ001-FLZ074-172-MI076-
NYZ176-178-MAZ016-IL014-TNZ027-NJZ106-GAZ044-MD014-191100-

...Gateway Observations for Charleston International...

CITY           SKY/WX    TMP DP  RH WIND       PRES   REMARKS
Chas Airport   CLOUDY    65  59  81 W16G22    29.74R
Seattle        CLOUDY    41  35  79 SE9       30.06F
Charlotte      PTCLDY    53  41  63 NW14G26   29.71R
Dallas DFW     CLEAR     44  35  70 NW9       30.29S
Dallas Love    CLEAR     43  35  73 N5        30.31S
Philladelphia  LGT RAIN  59  56  89 SW20G29   29.29S
Wash National  LGT RAIN  61  56  83 W13       29.39R
Baltimore      LGT RAIN  57  54  89 W22G31    29.35R
Miami          CLEAR     70  63  78 CALM      29.94S
Detroit        CLOUDY    37  31  78 NW15G22   29.70R WCI  28
Newark         LGT RAIN  58  56  93 SW15G26   29.26F
Laguardia      LGT RAIN  59  55  87 SW15      29.25F
J F K          LGT RAIN  57  56  96 S20       29.28F FOG
Boston Logan   LGT RAIN  58  55  90 S16G24    29.26F
Ft. Lauderdale CLEAR     67  65  93 NW6       29.93S
Chicago O`Hare CLOUDY    33  22  63 NW15      29.91R WCI  23
Chicago Midway CLOUDY    34  24  67 NW12      29.92R WCI  25
Houston Bush   CLEAR     51  36  56 N12       30.25R
Houston Hobby  CLEAR     53  34  48 N15       30.23R
Nashville      CLOUDY    44  32  62 NW9       30.04S
Atlanta        MOCLDY    47  38  71 NW23G29   29.91R

$$

GAZ044-118-TXZ119-213-NCZ071-DCZ001-MDZ014-506-PAZ021-071-NJZ106-
NYZ176-178-MAZ106-OHZ011-021-055-MIZ076-KYZ091-ILZ014-INZ047-
MNZ060-ONZ431-191100-

...Gateway Observations for Savannah International...

CITY           SKY/WX    TMP DP  RH WIND       PRES   REMARKS
Savannah Arpt  CLOUDY    66  62  87 W13G22    29.78R
Atlanta        MOCLDY    47  38  71 NW23G29   29.91R
Charlotte      PTCLDY    53  41  63 NW14G26   29.71R
Dallas DFW     CLEAR     44  35  70 NW9       30.29S
Houston Bush   CLEAR     51  36  56 N12       30.25R
Wash National  LGT RAIN  61  56  83 W13       29.39R
Wash Dulles    CLOUDY    55  42  61 NW28G39   29.43R
Baltimore      LGT RAIN  57  54  89 W22G31    29.35R
Philadelphia   LGT RAIN  59  56  89 SW20G29   29.29S
Newark         LGT RAIN  58  56  93 SW15G26   29.26F
Laguardia      LGT RAIN  59  55  87 SW15      29.25F
J F K          LGT RAIN  57  56  96 S20       29.28F FOG
Boston         LGT RAIN  58  55  90 S16G24    29.26F
Pittsburg      CLOUDY    38  35  89 W20G25    29.61R WCI  28
Akron          CLOUDY    38  32  79 W12       29.67R WCI  30
Cleveland      CLOUDY    40  29  64 NW20G31   29.70R WCI  30
Cincinnati     CLOUDY    39  31  72 W12       29.89R WCI  32
Columbus       LGT RAIN  38  36  91 NW15G22   29.80R WCI  30
Detroit        CLOUDY    37  31  78 NW15G22   29.70R WCI  28
Chicago O`Hare CLOUDY    33  22  63 NW15      29.91R WCI  23
Minneapolis    CLEAR     19  11  70 W8        30.08F WCI   9
Indianapolis   CLOUDY    37  30  75 W13       29.92R WCI  29
Toronto Canada CLOUDY    36  30  80 NW24G33   29.41R WCI  24

$$




USA.gov is the U.S. government's official web portal to all federal, state and local government web resources and services.